DW0326 Weather Reports


Display with metric or nautical units.
time (UTC)temp
F
wind
direction
speed
MPH
gust
MPH
rain 1hr
in
rain 24hr
in
rain mn
in
humidity
%
barometer
mb
20260906185157 84 199 2.0 10.0 0.00 0.00 0.00 86 1009.7
20260906184256 85 242 0.0 9.0 0.00 0.00 0.00 85 1009.8
20260906181557 87 0 0.0 0.0 0.00 0.00 0.00 79 1009.6
20260906175756 89 78 0.0 5.0 0.00 0.00 0.00 78 1009.8
20260906174857 88 83 1.0 9.0 0.00 0.00 0.00 79 1009.8
20260906173957 88 39 1.0 11.0 0.00 0.00 0.00 80 1009.8
20260906173056 88 25 3.0 12.0 0.00 0.00 0.00 77 1009.7
20260906172156 90 36 2.0 12.0 0.00 0.00 0.00 78 1009.7
20260906171257 89 61 2.0 10.0 0.00 0.00 0.00 78 1009.9
20260906170357 89 78 1.0 6.0 0.00 0.00 0.00 79 1009.8
20260906164557 87 0 0.0 0.0 0.00 0.00 0.00 85 1010.0
20260906163656 87 0 0.0 0.0 0.00 0.00 0.00 86 1010.0
20260906162757 86 0 0.0 0.0 0.00 0.00 0.00 82 1010.1
20260906161856 86 0 0.0 0.0 0.00 0.00 0.00 82 1009.9
20260906160956 87 0 0.0 0.0 0.00 0.00 0.00 84 1009.9
20260906160057 88 0 0.0 0.0 0.00 0.00 0.00 85 1009.9
20260906155157 88 0 0.0 0.0 0.00 0.00 0.00 83 1009.9
20260906154257 88 0 0.0 0.0 0.00 0.00 0.00 83 1009.7
20260906153356 88 0 0.0 0.0 0.00 0.00 0.00 82 1009.7
20260906152457 88 1 0.0 1.0 0.00 0.00 0.00 82 1009.7
20260906151557 88 1 1.0 6.0 0.00 0.00 0.00 83 1009.7
20260906150657 87 359 0.0 5.0 0.00 0.00 0.00 84 1009.7
20260906144857 86 0 0.0 0.0 0.00 0.00 0.00 86 1009.6
20260906143056 86 0 0.0 0.0 0.00 0.00 0.00 89 1009.7
20260906141256 85 0 0.0 0.0 0.00 0.00 0.00 90 1009.8
20260906140357 84 0 0.0 0.0 0.00 0.00 0.00 90 1009.6
20260906135457 83 0 0.0 0.0 0.00 0.00 0.00 92 1009.6
20260906134557 82 0 0.0 0.0 0.00 0.00 0.00 93 1009.6
20260906133657 82 0 0.0 0.0 0.00 0.00 0.00 95 1009.6
20260906132757 81 0 0.0 0.0 0.00 0.00 0.00 95 1009.5
20260906131857 81 0 0.0 0.0 0.00 0.00 0.00 96 1009.2
20260906130957 81 0 0.0 0.0 0.00 0.00 0.00 97 1009.2
20260906130056 81 0 0.0 0.0 0.00 0.00 0.00 96 1009.1
20260906124257 80 0 0.0 0.0 0.00 0.00 0.00 95 1008.9
20260906123357 80 0 0.0 0.0 0.00 0.00 0.00 96 1008.7
20260906121557 80 0 0.0 0.0 0.00 0.00 0.00 95 1008.6
20260906120657 80 0 0.0 0.0 0.00 0.00 0.00 95 1008.6
20260906115756 80 0 0.0 0.0 0.00 0.00 0.00 95 1008.2
20260906114857 80 0 0.0 0.0 0.00 0.00 0.00 95 1008.2
20260906113957 81 0 0.0 0.0 0.00 0.00 0.00 95 1008.2
20260906113057 81 0 0.0 0.0 0.00 0.00 0.00 95 1008.3
20260906112157 81 0 0.0 0.0 0.00 0.00 0.00 95 1008.3
20260906111256 80 0 0.0 0.0 0.00 0.00 0.00 94 1008.1
20260906110357 80 0 0.0 0.0 0.00 0.00 0.00 94 1008.1
20260906105456 81 0 0.0 0.0 0.00 0.00 0.00 94 1008.1
20260906104557 81 0 0.0 0.0 0.00 0.00 0.00 93 1007.9
20260906103657 81 0 0.0 0.0 0.00 0.00 0.00 93 1007.9
20260906101857 81 0 0.0 0.0 0.00 0.00 0.00 92 1007.8
20260906100957 81 0 0.0 0.0 0.00 0.00 0.00 92 1007.8
20260906100056 82 0 0.0 0.0 0.00 0.00 0.00 92 1007.7
20260906095156 82 0 0.0 0.0 0.00 0.00 0.00 91 1007.7
20260906094256 82 0 0.0 0.0 0.00 0.00 0.00 91 1007.7
20260906093356 82 0 0.0 0.0 0.00 0.00 0.00 91 1007.6
20260906092457 82 0 0.0 0.0 0.00 0.00 0.00 90 1007.6
20260906091556 82 0 0.0 0.0 0.00 0.00 0.00 90 1007.5
20260906090656 82 0 0.0 0.0 0.00 0.00 0.00 90 1007.5
20260906085757 82 0 0.0 0.0 0.00 0.00 0.00 90 1007.5
20260906083956 82 0 0.0 0.0 0.00 0.00 0.00 90 1007.5
20260906083056 82 0 0.0 0.0 0.00 0.00 0.00 90 1007.5
20260906082156 82 0 0.0 0.0 0.00 0.00 0.00 90 1007.5
20260906081256 83 0 0.0 0.0 0.00 0.00 0.00 89 1007.5
20260906075456 82 0 0.0 0.0 0.00 0.00 0.00 89 1007.7
20260906074557 82 0 0.0 0.0 0.00 0.00 0.00 89 1007.9
20260906073656 83 0 0.0 0.0 0.00 0.00 0.00 89 1007.9
20260906070957 83 0 0.0 0.0 0.00 0.00 0.00 89 1008.0
20260906065156 83 0 0.0 0.0 0.00 0.00 0.00 88 1008.0
20260906064256 83 0 0.0 0.0 0.00 0.00 0.00 88 1008.0
20260906063356 83 0 0.0 0.0 0.00 0.00 0.00 88 1008.0
20260906062457 83 0 0.0 0.0 0.00 0.00 0.00 88 1008.0
20260906054856 83 213 0.0 4.0 0.00 0.00 0.00 88 1008.0
20260906053957 83 0 0.0 0.0 0.00 0.00 0.00 88 1008.0
20260906053056 83 223 0.0 5.0 0.00 0.00 0.00 88 1008.0
20260906052156 83 227 0.0 6.0 0.00 0.00 0.00 88 1008.1
20260906051256 83 205 1.0 7.0 0.00 0.00 0.00 88 1008.1
20260906050357 83 202 0.0 9.0 0.00 0.00 0.00 88 1008.1
20260906045457 83 179 0.0 6.0 0.00 0.00 0.00 88 1008.1
20260906044556 84 0 0.0 0.0 0.00 0.00 0.00 88 1008.1
20260906043657 84 0 0.0 0.0 0.00 0.00 0.00 88 1008.1
20260906042756 84 185 1.0 9.0 0.00 0.00 0.00 88 1008.1
20260906041856 84 185 2.0 10.0 0.00 0.00 0.00 87 1008.2
20260906040957 84 186 0.0 1.0 0.00 0.00 0.00 87 1008.2
20260906040056 84 185 1.0 7.0 0.00 0.00 0.00 87 1008.2
20260906035157 84 184 0.0 6.0 0.00 0.00 0.00 87 1008.2
20260906033356 84 0 0.0 0.0 0.00 0.00 0.00 86 1008.2
20260906030656 84 178 0.0 6.0 0.00 0.00 0.00 86 1008.0
20260906025757 85 178 0.0 8.0 0.00 0.00 0.00 85 1008.0
20260906024857 85 178 0.0 8.0 0.00 0.00 0.00 86 1007.7
20260906023956 85 172 1.0 5.0 0.00 0.00 0.00 85 1007.7
20260906023057 85 0 0.0 0.0 0.00 0.00 0.00 85 1007.5
20260906022156 85 171 0.0 7.0 0.00 0.00 0.00 84 1007.5
20260906020356 85 175 0.0 6.0 0.00 0.00 0.00 83 1007.3
20260906015456 86 184 0.0 4.0 0.00 0.00 0.00 83 1007.3
20260906014556 86 188 1.0 8.0 0.00 0.00 0.00 83 1007.1
20260906013656 86 199 1.0 8.0 0.00 0.00 0.00 82 1007.1
20260906012756 86 161 0.0 4.0 0.00 0.00 0.00 83 1007.1
20260906011856 86 0 0.0 0.0 0.00 0.00 0.00 83 1007.0
20260906010956 86 161 0.0 3.0 0.00 0.00 0.00 82 1007.0
20260906010056 87 0 0.0 0.0 0.00 0.00 0.00 82 1007.0
20260906005156 87 0 0.0 0.0 0.00 0.00 0.00 82 1007.0
20260906003356 87 120 0.0 10.0 0.00 0.00 0.00 80 1007.0
20260906002456 88 109 1.0 7.0 0.00 0.00 0.00 79 1007.0
20260906001556 88 103 0.0 5.0 0.00 0.00 0.00 77 1007.2
20260905235756 88 106 0.0 5.0 0.00 0.00 0.00 73 1007.5
20260905233956 88 0 0.0 0.0 0.00 0.01 0.00 73 1007.5
20260905233056 88 0 0.0 0.0 0.00 0.01 0.00 74 1007.5
20260905231256 89 0 0.0 0.0 0.00 0.01 0.00 75 1007.3
20260905230356 89 101 0.0 6.0 0.00 0.01 0.00 74 1007.1
20260905225456 89 0 0.0 0.0 0.00 0.01 0.00 73 1007.1
20260905224556 90 0 0.0 0.0 0.00 0.01 0.00 77 1007.0
20260905223656 90 0 0.0 0.0 0.00 0.01 0.00 75 1007.0
20260905222756 90 213 0.0 8.0 0.00 0.01 0.00 75 1007.0
20260905221856 90 0 0.0 0.0 0.00 0.01 0.00 73 1007.0
20260905220956 90 206 0.0 5.0 0.00 0.01 0.00 74 1007.0
20260905220056 91 206 0.0 5.0 0.00 0.01 0.00 72 1007.0